Regional Weather Roundup
Issued by NWS Boston, MA

Home | Current Version | Previous Version | Text Only | Print | Product List | Glossary On
Versions: 1 2 3 4 5 6 7 8 9 10 11 12 13 14 15 16 17 18 19 20 21 22 23 24 25 26 27 28 29 30 31 32 33 34 35 36 37 38 39 40 41 42 43 44 45 46 47 48 49 50
000
ASUS41 KBOX 251710
RWRBOX

REGIONAL WEATHER ROUNDUP
NATIONAL WEATHER SERVICE TAUNTON MA
100 PM EDT MON MAY 25 2015

NOTE:  "FAIR" INDICATES FEW OR NO CLOUDS BELOW 12,000 FEET WITH NO
SIGNIFICANT WEATHER AND/OR OBSTRUCTIONS TO VISIBILITY.  THE FOLLOWING
OBSERVATION LOCATIONS DO NOT REPORT PRESENT WEATHER...PROVINCETOWN...
SMITHFIELD...BLOCK ISLAND...KEENE...AND OXFORD.

MAZALL-251800-
EASTERN MASSACHUSETTS

CITY           SKY/WX    TMP DP  RH WIND       PRES   REMARKS
BOSTON         CLOUDY    78  50  37 W7        30.21F
BEVERLY        CLOUDY    78  52  40 W8        30.20F
LAWRENCE       CLOUDY    77  51  40 W8        30.22F
BEDFORD        CLOUDY    75  52  44 VRB5      30.20F
BLUE HILL        N/A     77  51  40 SW14      30.23F
NORWOOD        CLOUDY    79  54  41 SW10      30.22F
MARSHFIELD     PTSUNNY   81  54  39 SW7G22    30.24S
PLYMOUTH       PTSUNNY   80  54  40 SW17G24   30.25S
TAUNTON        CLOUDY    76  56  49 SW8       30.24F
NEW BEDFORD    PTSUNNY   74  56  53 SW10G20   30.25F
$$

MAZALL-251800-
CAPE COD AND THE ISLANDS

CITY           SKY/WX    TMP DP  RH WIND       PRES   REMARKS
FALMOUTH       PTSUNNY   70  55  60 SW15      30.28S
HYANNIS        PTSUNNY   68  56  65 SW16      30.26S
CHATHAM        CLOUDY    63  56  78 SW13G22   30.30S
PROVINCETOWN   CLOUDY    72  55  56 S15G22    30.25S
NANTUCKET      PTSUNNY   63  54  72 SW13      30.31S
MARTHAS VNYRD  PTSUNNY   67  55  65 SW13      30.29F
$$

MAZALL-251800-
CENTRAL AND WESTERN MASSACHUSETTS

CITY           SKY/WX    TMP DP  RH WIND       PRES   REMARKS
WORCESTER      CLOUDY    71  52  50 SW9       30.25F
FITCHBURG      CLOUDY    75  54  47 S12       30.22F
ORANGE         CLOUDY    68  54  60 S9        30.23F
SPRINGFIELD    PTSUNNY   73  57  57 S8        30.20F
WESTFIELD      CLOUDY    73  57  57 S8        30.21F
NORTH ADAMS    NOT AVBL
PITTSFIELD     CLOUDY    72  53  51 VRB3      30.21F
$$

RIZALL-251800-
RHODE ISLAND

CITY           SKY/WX    TMP DP  RH WIND       PRES   REMARKS
PROVIDENCE     CLOUDY    70  57  63 SE10      30.26F
NEWPORT        CLOUDY    64  55  72 S7        30.27F
BLOCK ISLAND   MOSUNNY   64  54  68 SW15G21   30.29F
SMITHFIELD     CLOUDY    73  55  53 SW6       30.25F
WESTERLY       PTSUNNY   68  55  63 S8        30.28F
$$

CTZALL-251800-
CONNECTICUT

CITY           SKY/WX    TMP DP  RH WIND       PRES   REMARKS
BRADLEY INTL   PTSUNNY   77  58  51 S8        30.21F
HARTFORD       MOSUNNY   81  59  47 S8G22     30.21F
BRIDGEPORT     MOSUNNY   69  57  65 E8        30.24F
DANBURY        MOSUNNY   79  55  43 S12       30.23F
GROTON         MOSUNNY   65  56  72 S9        30.27S
NEW HAVEN      MOSUNNY   76  58  53 S6        30.24F
CHESTER        FAIR      77  57  50 S6        30.26F
MERIDEN        MOSUNNY   80  57  45 S9        30.23F
WILLIMANTIC    PTSUNNY   81  56  42 S12       30.24F
$$

MEZ002-015-021-024-NHZ003-005-008-011-012-014-VTZ005-008-251800-
NORTHERN NEW ENGLAND

CITY           SKY/WX    TMP DP  RH WIND       PRES   REMARKS
PORTLAND ME    CLOUDY    82  53  36 W9        30.17F
BANGOR ME      CLOUDY    79  45  29 SW13G18   30.12F
CONCORD NH     CLOUDY    77  50  38 SW6       30.20F
MANCHESTER NH  CLOUDY    77  51  40 SW3       30.18F
NASHUA NH      CLOUDY    77  54  44 VRB5      30.21F
PORTSMOUTH NH  CLOUDY    81  50  34 W7        30.17F
JAFFREY NH     CLOUDY    75  48  38 SW10      30.23F
KEENE NH       CLOUDY    68  55  64 W3        30.22F
BURLINGTON VT  LGT RAIN  65  54  67 S7        30.16F
MT. WASHINGTON PTSUNNY   50  41  71 W29G36      N/A
$$

NYZ052-076-251800-
EASTERN NEW YORK

CITY           SKY/WX    TMP DP  RH WIND       PRES   REMARKS
ALBANY         CLOUDY    76  50  40 S12G18    30.17F
NEW YORK CITY  MOSUNNY   81  57  43 S13       30.22F
$$

ANZALL-251800-
MARINE OBSERVATIONS

STATION/POSITION TIME  TEMP    WIND        PRES    VSBY  WAVE
                       AIR SEA DIR/SP/G                  HT/PER
                 (UTC) (F)     (DEG/KT/KT) (MB)    (MI)  (FT/S)
BOSTON BUOY      1650   66 56  270/  6/  8   N/A           1
BUZZARDS BAY     1700          210/ 15/ 16   N/A
NANTUCKET SOUND  1650   59 57  220/ 14/ 17   N/A           2/ 3
MASS BAY-STELLWA 1604   58 53  180/  8/  8   N/A    1 7/8  1/ 4
ISLE OF SHOALS   1700   74     250/  6/  6   N/A
S OF BLOCK IS    1608      54                N/A           3/ 6
$$

......................KEY.........................
  SKY/WX - SKY CONDITION/PRESENT WEATHER
  TMP    - TEMPERATURE IN FAHRENHEIT
  DWPT   - DEWPOINT IN FAHRENHEIT
  RH     - RELATIVE HUMIDITY IN PERCENT
  WIND   - DIRECTION AND SPEED IN MPH
  PRES   - MEAN SEA LEVEL PRESSURE IN INCHES OF HG
  WCI    - WIND CHILL INDEX
  VSB    - VISIBILITY IN MILES
  HX     - HEAT INDEX
  TC     - TEMPERATURE IN CELSIUS
  VRB    - VARIABLE WIND DIRECTION
  N/A    - NOT AVAILABLE


USA.gov is the U.S. government's official web portal to all federal, state and local government web resources and services.